Accueil
METAR-TAF:

METAR-TAF

Aéroports :

Portage Glacier, Alaska, États-Unis

latitude: 60-47N, longitude: 148-50W, altitude: 29 m

Observation

Le bulletin a été fait il y a 55 minutes, à 17:53 UTC
Vent calme
Température -21°C
Humidité 84%
Pression 1014 hPa
Visibilité: 16.1 km
Ciel clair

METAR: PATO 161753Z AUTO 00000KT 10SM CLR M21/M23 A2995 RMK AO2 SLP146 I6000 T12111233 11139 21222 53019 TSNO

Heure: 09:48 (18:48 UTC)


TAF: absent

Observations et prévisions météorologiques de plus de 4000 aéroports (messages METAR et TAF).

Les stations disponibles sont représentées par des disques jaunes et rouges sur la carte.

Passer la souris dessus pour voir le nom de la station.

Cliquer dessus pour voir les observations et prévisions météorologiques.

Pour changer de carte: cliquez sur les boutons verts avec une croix noire pour zoomer, sur le bouton vert avec un tiret pour effectuer un zoom arrière, ou sur les flèches vertes pour les cartes adjacentes.


METAR-TAF: